THORAD DELTA 1 DEB, 8154

Orbit data source: Space-Track

THORAD DELTA 1 DEB, 8154 is space debris in SSO originally from a launch on Fri, 15 Nov 1974 UTC launched from the Air Force Western Test Range (AFWTR). Debris objects in space refer to the collection of defunct objects orbiting the Earth. Examples of debris include non-operational satellites, rocket bodies, and fragments generated from explosions, collisions, or faulty payload assembly.

Loading next visibility...
Identifier
8154, 1974-089U
Orbit
SSO
Country
Flag of USUS
Related business
Manufacturer
Unknown
Mission
Spacecraft
Bus & Motor
Unknown
Mass
Unknown
Launch date (UTC)
1974-11-15 (51 years ago)
Launch vehicle
Unknown
Launch site
Air Force Western Test Range (AFWTR)
Object type
Payload
Rocket body
Debris
Shape & HBR
Unknown shape, 0.2 m
Radar Cross Section
Small (<0.1 m²)

Expand to show TLE details & history
Last TLE update: 6 hours ago

TLE from 6 hours ago
0 THORAD DELTA 1 DEB
1  8154U 74089U   25300.49868895 -.00000036  00000-0  65567-4 0  9996
2  8154 102.0683 299.4244 0005840  36.4359 115.8227 12.52426468329012
Epoch: 2025-10-27T11:58Z
TLE epoch observation values (Epoch: 2025-10-27T11:58:06.725Z)
Latitude
27.05658°
Longitude
-89.96477°
Altitude
1,459.356 km
Speed
7.134 km/s
True Right ascension
08h 22m 39s
True Declination
26° 55' 48"
Sunlit
Object was in daylight at epoch
Visualization orbit readout
Latitude
Unknown
Longitude
Unknown
Altitude
Unknown
Speed
Unknown
Apparent Right ascension
Unknown
Apparent Declination
Unknown
Sunlit
N/A
Visualization observer readout
Local Sidereal Time
13:15:28
Azimuth
Unknown
Elevation
Unknown
Doppler factor
Unknown
Orbital elements
Apogee altitude
1,456.497 km
Perigee altitude
1,447.352 km
Semi-major axis
7,830.062 km
Eccentricity
0.00058
Inclination
102.0683°
RAAN
299.4244°
Arg. of periapsis
36.4359°
True anomaly
115.88292°
Mean anomaly
115.8227°
Eccentric anomaly
115.85281°
Mean motion
3.13253 °/min
Orbital period
114.92 mins
BSTAR
0.000065567
Loading maneuver chart data...
Computing Atmospheric mass density...

Documentation

Showing up to 5 results
|